COSMOS 2154

导读

COSMOS 2154是独联体(CIS)在1991年8月22日发射的“宇宙”系列卫星,发射时苏联刚刚解体,是独联体时期继承航天体系后完成发射的空间资产。“宇宙”系列多承担军事侦察、空间技术验证任务,该卫星作为冷战末期航天活动的产物,延续了苏联/俄罗斯在近地轨道部署军事监视平台的传统,相关任务细节未公开,是后苏联时代早期航天活动的见证。

基本信息
目录编号:
21666
目录名称:
COSMOS 2154
国际标识:
1991-059A
轨道中心:
EARTH
卫星名称:
COSMOS 2154
卫星全名:
--
卫星状态:
在轨 (已飞行12804 天)
发射日期:
1991-08-22 UTC
国别 :
俄罗斯(独联体) (CIS)
星等 :
--
该卫星已列入 空间交会检测服务 Space Conjunction Data Service (SCDS) ,当前飞行风险评估等级: 无高风险
轨道信息
数据来源 国际轨道数据 AOE轨道数据
星历时间 2026-09-10T20:41:04+0800
19小时前
查看轨道信息
2026-09-10T12:00:00+0800
1天前
查看轨道信息
半长轴 7365.012km 7365.012km
偏心率 0.002448 0.002441
轨道倾角 82.906° 82.907°
近地点辐角 338.318° 339.695°
升交点赤经 45.989° 46.259°
平近点角 92.378° 102.730°
近地点 968.845km 968.897km
远地点 1004.905km 1004.853km
周期 104.838分钟 104.838分钟
每日圈数 13.735441 13.735442
详细信息
使用方式:
暂无
2D轨道图
3D轨道图
轨道高度分析图
轨道倾角分析图
轨道综合分析图
查看轨道综合分析图
交会数据列表
事件ID 空间交会对象 最接近时刻(TCA) 交会距离 交会风险概率(CRP) 交会风险指数(CRI) 操作
CDM_260911-042501-013802-166628
SL-8 R/B (10138)
2026-09-11T
04:25:48+0000
1.063 km
极远距离
2.061906E-5 中风险 0.61
CDM_260912-071202-166602-704821
2026-09-12T
07:12:43+0000
1.869 km
极远距离
2.765193E-6 低风险 0.44
CDM_260911-094800-095902-166629
2026-09-11T
09:48:00+0000
2.439 km
极远距离
1.769899E-6 低风险 0.4
与全量物体交会距离演化趋势
与全量物体交会风险概率演化趋势